Погода в Семендере

Россия / Республика Дагестан     42°59′27″N   47°24′07″E
темп.,
°C
ветер,
м/с
пор.,
м/с
влажн.,
%
обл.,
%
осадки,
мм/ч
давл.,
гПа
погр.,
м
8 марта, пн
пн800:00+1юв575429 0.0 1023659
03:00+1юв586015 0.0 1022573
06:00+2юв58650 0.0 1023652
09:00+3юв710595 0.0 1021991
12:00+4юв8106331 0.0 10181038
15:00+4вюв677366 0.0 1016827
18:00+3вюв4589100 0.1 1017412
21:00+2вюв2294100 0.4 1018185
9 марта, вт
вт900:00+2сз3595100 1.1 1017372
03:00+2ссз3595100 1.9 1017290
06:00+1сз2392100 0.2 1017254
09:00+3сз237899 0.2 1017476
12:00+4всв226122 0.0 1017556
15:00+5в325511 0.0 1016523
18:00+4юв456230 0.0 1017263
21:00+4ю346755 0.0 1019151
10 марта, ср
ср1000:00+4ю226761 0.0 102033
03:00+2сз568042 0.0 1020270
06:00+3зсз469182 0.1 1022349
09:00+4зсз457189 0.1 1023527
12:00+7ссз335197 0.0 10231041
15:00+6всв235798 0.1 1022836
18:00+4в3379100 0.6 1022378
21:00+3в4577100 0.9 1022477
11 марта, чт
чт1100:00+2в4674100 0.4 1020721
03:00+2вюв5783100 1.1 1019668
06:00+1в5697100 3.5 1019342
09:00+1всв71099100 8.5 1019534
12:000всв81199100 6.0 1018663
15:00−1св91194100 9.6 1018766
18:00−2ссв5896100 2.5 1021568
21:00−3ссв5796100 4.9 1023507
12 марта, пт
пт1200:00−3ссз5796100 3.1 1024432
03:00−4ссз6896100 7.3 1025506
06:00−5сз6895100 3.2 1027544
09:00−5сз5685100 4.1 1030661
12:00−4ссз4573100 0.1 10291041
15:00−4с3471100 0.1 1029892
18:00−6ссв2274100 0.0 1031294
21:00−7юз117597 0.1 1032270